Theta_e
321 318 321 324 326 340 343 345 344 343 349 348 347 344 338 336 340 339 340 345 345 344 342 344 344 343 343 344 342 345 344 345 340 342 344 346 343 346 344 341 346 346 345 343
319 317 322 325 334 342 344 348 350 340 344 345 344 345 341 338 339 340 341 345 345 346 345 345 344 344 346 345 343 344 345 344 342 341 345 345 347 346 346 346 346 345 344 345
320 322 324 326 331 341 345 340 340 340 338 347 346 350 347 344 340 338 342 343 345 346 344 345 346 346 345 344 343 341 344 344 342 345 345 346 345 345 345 347 349 340 345 349
323 328 329 328 330 329 335 342 341 340 350 350 348 352 350 346 345 342 343 343 343 344 345 344 346 346 346 345 343 342 343 342 343 348 347 346 346 346 343 344 346 342 347 348
324 328 328 328 329 328 329 337 337 339 338 341 351 344 352 345 345 344 342 342 343 343 343 341 344 347 347 346 343 343 343 343 343 348 348 346 344 347 347 348 349 346 345 348
324 326 326 326 328 327 328 329 333 332 333 335 339 341 353 348 345 342 342 341 343 343 343 343 342 345 348 348 345 345 344 345 340 346 345 344 344 346 347 346 348 346 346 345
323 323 324 326 325 326 326 323 325 330 342 343 337 341 340 346 343 340 342 341 340 341 342 343 342 344 345 349 346 346 345 345 341 343 344 342 344 347 347 347 347 345 346 347
327 328 323 324 324 323 326 322 322 338 343 343 339 344 347 345 345 345 343 340 340 340 342 343 340 343 345 349 347 347 346 346 343 336 342 346 345 345 346 347 344 347 349 348
328 327 325 324 327 324 324 331 331 335 339 341 340 343 341 343 341 345 345 344 341 342 343 343 344 344 345 348 349 348 346 348 345 341 337 344 342 344 348 348 349 349 349 348
326 327 328 329 328 328 327 330 328 332 342 346 344 347 347 344 340 338 340 343 342 341 342 343 344 346 346 347 345 349 347 347 346 343 340 340 341 343 342 345 344 344 347 348
326 326 327 329 327 326 327 329 329 333 335 343 347 348 340 338 337 338 340 342 342 342 343 344 346 345 345 347 342 349 348 347 347 345 342 341 340 340 345 344 343 344 344 345
326 326 327 328 328 329 329 332 328 327 340 341 339 338 338 336 337 339 340 342 343 344 341 345 346 345 344 343 344 347 349 348 349 347 343 344 343 341 339 340 343 345 344 347
325 327 324 327 326 329 331 330 329 330 332 339 336 333 337 335 337 339 340 341 349 346 347 346 345 344 344 345 342 348 350 349 350 347 344 350 346 345 341 340 342 342 344 344
323 321 321 321 325 325 328 329 329 330 332 337 335 335 335 336 337 335 340 341 341 345 348 347 347 346 344 345 344 345 352 349 350 346 347 351 351 347 346 346 348 348 346 349
318 320 324 324 324 323 323 324 324 324 330 330 332 334 336 336 334 338 335 337 340 336 338 345 347 347 346 346 345 351 349 348 351 347 350 351 350 349 348 349 350 350 350 348
322 322 327 327 325 323 324 324 323 321 322 329 332 340 340 336 336 334 331 328 340 337 338 341 344 347 348 349 350 350 349 348 350 352 350 350 351 351 350 349 350 350 349 350
327 327 327 327 325 325 323 324 326 329 330 331 338 338 335 334 333 334 332 338 343 346 346 347 342 344 346 346 349 345 342 337 350 352 351 351 351 351 349 349 350 349 350 349
325 325 324 324 324 327 324 330 331 332 332 331 336 337 338 334 333 330 336 344 343 344 344 345 344 347 342 343 345 346 343 339 348 352 352 352 351 351 349 348 345 347 347 347
322 326 324 325 324 325 327 332 331 331 333 335 338 337 335 338 335 340 343 342 342 342 340 342 345 345 348 342 340 347 345 343 338 352 353 352 351 350 348 346 348 348 348 347
322 325 324 326 329 328 333 329 329 328 335 334 335 336 336 335 337 337 341 341 340 340 340 343 345 347 345 349 347 348 350 346 347 352 353 351 351 351 348 347 347 347 347 343
326 326 327 327 327 328 332 330 329 331 337 335 335 334 332 330 328 331 335 341 340 340 339 342 346 348 347 349 349 348 347 341 345 350 352 350 349 349 348 346 345 343 345 345
328 329 330 330 332 332 329 330 331 331 329 327 336 336 334 331 339 341 340 339 339 339 340 341 345 348 347 346 346 347 347 340 339 340 340 346 345 344 344 343 344 343 341 340
329 326 326 325 331 328 326 328 329 328 327 327 333 337 335 335 336 337 336 338 338 338 339 341 344 346 346 347 344 344 345 342 338 335 338 338 339 340 339 339 339 339 338 337
329 328 328 329 329 328 325 327 327 328 327 329 332 334 334 334 331 334 336 337 336 338 339 340 341 345 345 345 345 343 341 339 335 337 336 337 333 339 339 338 336 335 335 334
328 329 327 328 330 330 327 327 329 330 333 333 332 331 329 334 338 337 335 334 336 336 337 339 340 342 343 345 345 344 343 341 340 341 339 341 339 339 337 336 335 335 334 334
328 328 328 330 328 327 328 329 328 335 336 334 333 332 329 327 332 332 334 333 333 332 335 336 336 336 338 342 341 340 341 341 342 339 338 338 337 336 336 336 336 335 335 334
Wind_Speed
14 3 7 14 11 3 11 10 6 6 5 3 9 5 13 21 9 11 9 1 12 17 23 15 15 18 18 21 19 18 19 14 12 9 13 16 12 6 8 17 14 12 7 9
3 8 14 14 7 12 14 12 5 4 6 6 6 7 10 11 8 11 14 7 10 6 18 16 23 22 23 22 22 19 16 14 11 12 10 15 11 7 6 9 10 11 9 7
8 10 16 14 2 10 15 10 7 7 4 9 8 3 7 7 20 31 25 19 14 13 19 14 21 25 24 24 22 21 19 15 16 16 13 13 9 9 8 5 11 8 9 5
7 6 2 7 7 7 6 20 18 14 10 5 18 3 10 12 11 15 17 24 25 20 23 17 15 20 25 23 22 19 20 19 21 17 16 12 15 10 7 7 7 7 9 3
7 1 5 4 8 8 5 8 4 8 10 5 18 4 4 10 12 17 26 24 29 26 30 25 23 24 25 25 25 22 20 18 25 23 19 18 15 12 9 11 10 7 12 6
8 8 2 6 9 7 7 6 3 2 1 2 5 6 4 9 19 13 22 25 27 27 26 29 18 24 22 28 25 22 21 18 24 27 21 19 19 13 9 12 16 11 6 13
9 11 4 5 6 5 4 5 4 5 5 2 8 8 7 18 11 15 18 27 25 26 30 35 26 27 23 30 27 26 22 18 21 30 22 21 21 18 15 14 14 9 10 8
5 2 8 6 5 5 5 7 5 4 2 2 6 4 3 10 19 17 23 29 28 27 29 34 33 22 30 28 28 27 23 18 19 21 26 20 21 19 14 14 10 10 7 11
5 8 7 10 5 7 7 3 1 5 2 1 2 7 2 19 20 9 16 23 30 29 33 35 32 26 31 27 32 30 25 24 17 21 21 23 23 21 18 16 13 11 9 9
6 5 8 2 5 5 4 1 6 4 3 1 8 4 4 9 14 17 16 18 28 30 32 35 29 31 32 38 30 31 30 26 20 20 23 26 23 23 24 19 19 13 9 9
4 2 9 6 4 7 2 2 3 6 3 4 3 5 7 7 8 13 22 17 27 29 30 33 33 40 37 46 32 35 32 31 26 20 24 23 25 27 23 24 19 16 16 13
7 3 5 8 7 8 7 0 1 4 5 3 3 5 9 9 14 3 18 21 21 24 36 27 39 41 43 42 29 38 35 33 27 21 21 23 21 22 26 27 23 23 21 17
5 4 4 9 7 7 3 6 5 7 4 6 5 4 4 6 11 3 25 22 5 9 10 25 28 39 38 38 29 39 42 31 27 22 23 23 20 20 22 25 24 22 19 21
3 2 4 4 7 5 5 8 8 2 2 5 5 3 3 5 6 8 10 16 19 5 8 9 20 30 37 45 43 37 38 31 27 22 25 26 24 21 21 20 19 16 17 16
3 2 5 7 9 10 9 10 11 8 6 6 4 7 2 5 5 3 8 24 43 7 7 7 14 27 32 38 36 41 39 33 29 22 28 28 26 23 22 22 20 18 18 18
4 3 4 5 8 9 10 9 9 10 8 6 7 6 2 9 20 22 9 48 41 7 4 8 7 16 25 30 38 40 39 32 32 29 26 27 26 25 24 22 24 21 18 17
3 3 3 4 9 11 7 9 8 6 10 7 3 6 11 6 7 19 32 20 10 11 12 6 4 17 17 20 30 37 31 25 30 33 29 25 27 26 23 21 21 20 18 17
1 1 2 2 6 6 6 9 15 11 13 10 8 6 6 10 17 14 5 2 9 7 18 15 9 8 18 15 12 26 30 24 35 37 31 28 26 25 22 20 18 15 14 16
3 4 1 2 3 8 8 6 4 6 7 15 12 7 2 5 2 3 7 10 5 8 15 18 6 8 8 23 19 14 30 36 34 37 36 33 29 25 20 17 16 18 18 18
4 6 5 1 2 4 3 7 9 7 3 13 17 11 14 9 2 4 6 8 8 7 9 12 9 8 10 12 21 21 27 33 31 33 37 33 27 22 21 22 19 17 15 17
2 2 4 5 5 3 4 8 5 1 3 8 10 11 10 4 6 3 4 8 10 11 6 10 6 6 9 14 19 26 12 4 12 13 33 25 22 20 20 16 14 14 10 9
4 5 4 3 5 2 5 6 4 6 3 9 8 10 13 9 7 8 7 8 9 11 7 8 8 4 8 10 15 18 18 8 9 7 5 9 14 13 11 8 7 8 9 8
2 4 4 5 4 5 3 7 4 7 1 7 4 11 11 11 12 8 7 8 9 8 6 4 8 7 7 9 7 12 14 14 5 9 12 4 2 7 3 0 4 6 5 6
4 5 2 6 2 2 6 6 9 13 8 14 2 10 6 8 11 7 6 9 8 11 9 8 6 10 9 10 15 16 18 16 18 12 15 7 1 8 8 8 11 9 11 13
4 11 3 5 7 8 4 6 7 12 13 12 8 8 12 11 7 5 7 2 4 7 11 9 7 11 17 14 14 12 12 12 10 17 20 17 13 12 13 13 12 11 10 8
10 8 3 2 5 3 2 10 9 16 16 11 5 10 11 5 10 2 4 1 1 5 7 8 7 12 15 15 15 12 12 12 14 17 16 16 15 14 13 10 11 10 7 6
Wind_Direction
219 178 237 243 246 144 91 112 135 32 142 122 201 174 216 221 214 240 262 280 195 241 204 185 169 172 172 161 161 169 175 178 172 179 153 145 134 147 115 140 134 130 140 138
246 224 244 257 200 122 122 119 114 8 309 186 150 204 232 230 249 253 235 230 172 286 192 183 171 180 176 174 179 176 179 181 170 167 160 159 158 158 150 145 144 140 151 132
209 244 232 249 204 149 147 145 202 167 215 236 171 197 215 239 217 222 223 200 198 226 200 170 179 171 174 180 182 192 191 189 171 172 173 167 175 174 160 151 149 151 154 123
254 298 86 10 334 349 140 180 184 166 165 206 190 240 217 216 228 240 236 193 199 200 195 174 179 200 197 200 199 198 202 197 181 179 180 188 191 171 166 154 135 132 140 128
252 167 136 287 277 254 256 198 187 188 189 169 202 267 244 192 223 219 229 216 194 196 191 202 200 202 208 201 198 200 202 198 187 188 181 188 194 180 181 171 184 179 162 164
269 287 350 245 248 271 318 355 313 345 211 345 354 68 258 180 223 222 215 214 195 190 201 199 196 187 203 206 199 200 197 195 193 198 195 192 189 178 185 176 176 188 173 177
248 238 186 277 332 353 354 9 333 347 37 245 357 27 280 228 221 207 189 201 202 195 200 198 210 208 207 206 206 200 199 193 193 200 199 196 188 194 183 194 190 224 203 194
261 252 152 187 208 252 257 183 173 208 161 261 22 205 336 298 225 208 193 184 188 196 194 190 192 213 208 205 208 207 205 198 198 199 196 195 196 192 192 163 160 175 209 217
352 15 169 161 174 164 278 338 168 115 1 82 156 318 91 23 17 39 134 167 189 196 198 201 216 221 209 201 202 208 211 208 204 205 202 198 201 195 173 176 187 204 199 210
311 343 295 172 105 285 258 236 29 12 114 335 1 304 283 8 359 340 321 183 192 206 207 212 208 207 212 200 213 204 220 216 210 211 204 202 210 201 193 189 194 206 198 172
335 351 298 340 172 225 296 139 89 99 96 160 161 215 153 125 50 283 282 278 205 210 220 212 202 202 206 195 209 203 208 213 211 212 212 203 207 209 202 206 201 204 218 214
7 285 304 286 320 8 117 261 10 138 213 238 190 271 173 189 138 215 289 282 233 217 222 221 201 203 201 203 199 206 211 208 211 211 211 205 208 212 211 214 211 208 218 226
351 340 348 333 345 22 19 334 315 113 121 179 143 272 190 274 79 59 270 275 239 229 212 224 198 197 202 202 189 194 208 207 203 203 203 205 209 208 205 215 222 219 220 226
96 265 215 236 271 321 320 309 302 248 162 161 206 214 174 87 87 43 33 356 309 247 249 228 199 206 212 205 206 197 201 208 205 196 201 211 216 219 213 211 215 221 231 231
131 243 289 327 338 328 317 315 310 308 236 152 212 178 135 123 112 142 186 306 308 296 296 226 197 181 191 201 202 196 197 202 203 199 202 211 217 222 218 215 226 227 227 241
184 255 291 295 295 312 319 308 279 261 290 220 180 95 71 122 112 95 47 325 290 300 348 225 183 164 173 191 198 191 187 202 202 208 208 209 214 217 218 217 218 227 232 235
156 84 46 331 328 327 326 281 328 17 34 27 110 147 153 154 166 158 178 216 228 304 299 350 277 221 180 185 201 199 202 210 205 216 216 209 212 215 219 217 221 226 231 236
141 67 101 265 318 294 245 22 47 42 15 21 100 102 140 182 174 189 224 209 269 277 284 281 283 225 219 193 192 207 212 222 233 216 212 212 212 216 216 215 215 219 226 234
207 146 133 133 253 274 310 28 41 73 32 80 126 120 41 123 151 200 193 228 223 260 287 291 289 277 240 238 235 206 225 214 221 208 205 209 210 209 209 209 208 212 223 233
192 130 127 257 278 270 83 56 15 353 70 104 126 154 157 179 294 256 265 280 265 282 292 289 269 242 233 236 230 231 227 226 224 216 207 205 207 205 203 206 215 218 222 243
151 229 190 225 221 235 0 12 341 278 243 353 110 152 161 174 210 283 273 283 305 312 303 277 249 259 224 226 225 230 166 179 230 229 191 181 183 192 199 208 230 241 238 243
174 154 215 233 233 197 8 16 100 206 259 344 108 164 152 157 155 184 218 256 272 285 289 280 258 197 204 231 240 248 238 210 285 235 83 124 167 180 191 201 221 230 242 246
5 182 203 144 212 199 260 265 159 163 228 320 167 179 167 170 204 216 237 235 235 230 239 192 223 214 191 193 201 226 190 169 176 106 168 267 96 205 194 195 220 195 157 142
348 297 56 21 104 211 316 51 27 29 25 11 151 164 174 213 204 200 233 235 233 200 191 191 153 194 180 178 195 202 190 190 172 161 153 134 157 243 191 188 167 136 133 131
165 315 216 254 300 289 100 42 59 41 30 47 126 150 154 167 149 238 268 228 238 202 193 196 189 146 126 152 167 189 194 194 190 184 181 188 182 176 155 147 144 143 137 134
183 201 158 214 311 140 54 100 68 80 74 81 98 142 148 176 198 120 305 353 96 201 188 192 189 169 162 153 144 144 146 158 173 165 172 156 153 150 147 148 144 134 131 138